{"data":{"norad_id":58006,"intl_designator":"2023-153R","name":"STARLINK-30526","alt_names":[],"object_type":"PAYLOAD","status":"ACTIVE","operator":null,"country":"US","launch_date":"2023-10-05","launch_site_code":"AFETR","launch_vehicle":null,"mission":null,"orbit_class":"UNKNOWN","rcs_meters":null,"size_class":null,"mass_kg":null,"dimensions":null,"purposes":["comms"],"wikipedia_slug":null,"has_3d_model":false,"image_url":null,"decayed_at":null,"tle_current":{"epoch":"2026-05-24T22:48:35.887104Z","epoch_age_seconds":79403,"freshness":"FRESH","line1":"1 58006U 23153R   26144.95041536  .00024563  00000+0  84491-3 0  9991","line2":"2 58006  43.0043 330.8401 0003993 285.4563  74.5849 15.29610037146856","mean_motion":15.29610037,"eccentricity":0.0003993,"inclination_deg":43.0043,"raan_deg":330.8401,"arg_perigee_deg":285.4563,"mean_anomaly_deg":74.5849,"bstar":0.00084491,"rev_number":14685,"period_min":94.141641671249,"perigee_km":474.23991166356,"apogee_km":479.71440583073,"semimajor_km":6855.1141587471,"source":"CELESTRAK","updated_at":"2026-05-25T13:38:18.492376Z"}}}